Regional Weather Roundup
Issued by NWS

Home | Current Version | Previous Version | Graphics & Text | Print | Product List | Glossary On
Versions: 1 2 3 4 5 6 7 8 9 10 11 12 13 14 15 16 17 18 19 20 21 22 23 24 25 26 27 28 29 30 31 32 33 34 35 36 37 38 39 40 41 42 43 44 45 46 47 48 49 50
000
ASUS43 KMPX 231301
RWRMN
WEATHER ROUNDUP FOR MINNESOTA
NATIONAL WEATHER SERVICE TWIN CITIES/CHANHASSEN MN
700 AM CST SUN NOV 23 2014


NOTE: "FAIR" INDICATES FEW OR NO CLOUDS BELOW 12,000 FEET WITH NO
SIGNIFICANT WEATHER AND/OR OBSTRUCTIONS TO VISIBILITY. N/A MEANS
CURRENT SKY AND/OR WEATHER CONDITIONS ARE NOT AVAILABLE.

MNZ060>063-068>070-231400-
   Twin Cities Metro

CITY           SKY/WX    TMP DP  RH WIND       PRES   REMARKS
TWIN CITIES    CLOUDY    47  46  97 CALM      29.46R FOG
ST PAUL        CLOUDY    45  45 100 CALM      29.47R FOG
CRYSTAL        FOG       40  39  97 CALM      29.44R VSB 1/4
LAKEVILLE      CLOUDY    48  46  93 S7        29.46R
EDEN PRAIRIE   CLOUDY    49  48  97 SW5       29.44R FOG
SOUTH ST PAUL  CLOUDY    48  46  95 S3        29.46R FOG
LAKE ELMO      CLOUDY    46  46 100 S9        29.47R FOG
$$
MNZ001>005-007-008-013>017-022>024-027-028-231400-
   Northwest Minnesota

CITY           SKY/WX    TMP DP  RH WIND       PRES   REMARKS
BEMIDJI        SNOW      33  33 100 SW3       29.38R VSB 1/2
HALLOCK        CLOUDY    34  30  86 S8        29.35R FOG     WCI  27
ROSEAU         CLOUDY    36  30  80 S5        29.36F HAZE
WARROAD        CLOUDY    34  30  86 S3        29.37S FOG
THIEF RVR FALL CLOUDY    32  32 100 S7        29.38R VSB 3/4 WCI  26
CROOKSTON      CLOUDY    34  32  93 S6        29.39R FOG     WCI  29
FOSSTON        CLOUDY    30  30 100 SW8       29.39R FOG     WCI  23
DETROIT LAKES  MOCLDY    32  32 100 CALM      29.41R FOG
MOORHEAD       CLOUDY    34  34 100 S6        29.41R FOG     WCI  29
PARK RAPIDS    MOCLDY    33  33 100 CALM      29.38S FOG
MAHNOMEN       CLOUDY    32  32  99 SW6       29.39R FOG     WCI  26
$$
MNZ006-009>011-018-025>026-231400-
   North Central Minnesota

CITY           SKY/WX    TMP DP  RH WIND       PRES   REMARKS
BAUDETTE       CLOUDY    33  32  96 SE3       29.38R FOG
FLAG ISLAND    CLOUDY    32  30  93 SE8       29.36F FOG     WCI  25
INTL FALLS     CLOUDY    33  31  92 SE5       29.39S FOG     WCI  29
WASKISH        FOG       34  34 100 CALM      29.37F VSB 1
BIG FORK       FOG       34  32  93 CALM      29.40R VSB 3/4
LONGVILLE      FOG       34  34 100 CALM      29.37F VSB 1/4
GRAND RAPIDS   CLOUDY    36  32  87 CALM      29.39R VSB 1/4
CRANE LAKE     FOG       30  30 100 CALM      29.42S VSB 3/4
ORR            CLOUDY    34  30  86 CALM      29.37S FOG
COOK           FOG       34  34 100 CALM      29.40S VSB 3/4
WALKER         CLOUDY    33  33  99 CALM      29.37F FOG
$$
MNZ012-019>021-037-231400-
   Northeast Minnesota

CITY           SKY/WX    TMP DP  RH WIND       PRES   REMARKS
DULUTH         FOG       36  34  92 SE3       29.40S VSB 1/8
ELY            CLOUDY    34  34 100 CALM      29.40S FOG
HIBBING        FOG       36  34  92 CALM      29.39S VSB 1/2
EVELETH        FOG       36  36 100 CALM      29.40S VSB 1/2
DULUTH HARBOR  FOG       37  37 100 CALM      29.43S VSB 1/2
TWO HARBORS    HAZE      37  34  87 N5        29.39F VSB 1
SILVER BAY     FOG       37  36  93 CALM      29.40F VSB 1
GRAND MARAIS     N/A     37  36  96 NE8       29.46F
G MARAIS ARPRT CLOUDY    32  28  86 E7        29.43S VSB 1   WCI  26
$$
MNZ029>031-032-039>041-046>048-054>057-064-231400-
   West Central Minnesota

CITY           SKY/WX    TMP DP  RH WIND       PRES   REMARKS
FERGUS FALLS   CLOUDY    34  32  93 CALM      29.43S
WHEATON        MOCLDY    36  30  80 W6        29.44S
MORRIS           N/A     36  32  87 NW5       29.42R
ALEXANDRIA     CLOUDY    36  32  85 W6        29.42R
ELBOW LAKE       N/A     34  32  92 SW3       29.42R
WADENA         CLOUDY    34  32  93 W8        29.39R FOG     WCI  27
GLENWOOD       MOCLDY    36  32  87 SW5       29.43R
APPLETON       MOCLDY    37  32  81 CALM      29.43S
BENSON         CLOUDY    34  32  93 S5        29.44R WCI  30
ORTONVILLE     CLOUDY    37  32  81 N7        29.42S
MADISON        CLOUDY    39  36  87 CALM      29.43R
WILLMAR        MOCLDY    37  34  87 SW8       29.46R FOG
$$
MNZ033>034-036-042>043-049>051-058-059-231400-
   Central Minnesota

CITY           SKY/WX    TMP DP  RH WIND       PRES   REMARKS
ST CLOUD       FOG       36  35  96 MISG      29.43R VSB 3/4
SAUK CENTRE    CLOUDY    33  32  94 S5        29.43R WCI  29
PAYNESVILLE    CLOUDY    34  32  91 CALM      29.44R
AITKIN         CLOUDY    37  34  87 CALM      29.39R HAZE
PINE RIVER     FOG       32  32 100 CALM      29.43R VSB 1/2
BRAINERD       FOG       34  34 100 S3        29.40S VSB 1/2
STAPLES        CLOUDY    30  30 100 CALM      29.39R FOG
LONG PRAIRIE   CLOUDY    32  32 100 CALM      29.41R
LITTLE FALLS   CLOUDY    34  32  93 S5        29.42R FOG     WCI  30
LITCHFIELD     CLOUDY    41  41 100 SW3       29.44R FOG
BUFFALO        FOG       41  40  95 CALM      29.44S VSB 1/4
MAPLE LAKE     FOG       42  41  99 S3        29.44R VSB 1/4
$$
MNZ037-044-045-052-053-231400-
   East Central Minnesota

CITY           SKY/WX    TMP DP  RH WIND       PRES   REMARKS
PRINCETON      FOG       43  41  93 CALM      29.43R VSB 1/4
MORA           CLOUDY    36  36 100 CALM      29.44R FOG
CAMBRIDGE      HAZE      45  37  76 S3        29.42R VSB 1/4
RUSH CITY      FOG       41  40  97 S6        29.43R VSB 1
MOOSE LAKE     FOG       37  36  93 CALM      29.40R VSB 1/4
HINCKLEY       FOG       39  39 100 SW5       29.43R VSB 1/4
CLOQUET        FOG       36  34  93 CALM      29.40S VSB<1/4
MCGREGOR       CLOUDY    36  36 100 CALM      29.40S VSB 1
$$
MNZ071>073-080-081-089-090-097-098-231400-
   Southwest Minnesota

CITY           SKY/WX    TMP DP  RH WIND       PRES   REMARKS
MONTEVIDEO     CLOUDY    37  36  93 SW3       29.46R
GRANITE FALLS  MOCLDY    38  36  90 SW8       29.47R
CANBY          CLOUDY    39  34  81 SW3       29.46R
MARSHALL       CLOUDY    43  36  75 W13       29.46R
REDWOOD FALLS  CLOUDY    44  41  89 W8        29.43S
OLIVIA         CLOUDY    37  36  93 W5        29.44R FOG
PIPESTONE      CLOUDY    39  37  93 NW8       29.45S
WINDOM         CLOUDY    48  46  93 SW10      29.43S FOG
WORTHINGTON    CLOUDY    46  45  93 SW7       29.45R VSB 1/2
JACKSON        CLOUDY    46  45  93 S8        29.45S FOG
TRACY          CLOUDY    45  44  95 W7        29.45R
SLAYTON        CLOUDY    44  44 100 W13       29.45R FOG
$$
MNZ065>067-074>077-082>085-091>093-231400-
   South Central Minnesota

CITY           SKY/WX    TMP DP  RH WIND       PRES   REMARKS
MANKATO        CLOUDY    52  46  82 S10       29.45S
NEW ULM        FOG       45  45 100 CALM      29.44R VSB 1/4
ST JAMES       CLOUDY    50  48  93 S6        29.45S FOG
FAIRMONT       CLOUDY    50  46  87 S9        29.45S
GLENCOE        CLOUDY    47  47 100 S6        29.43S FOG
FARIBAULT      CLOUDY    50  48  93 S5        29.48R FOG
OWATONNA       CLOUDY    48  46  93 S9        29.48R FOG
WASECA         CLOUDY    48  45  87 S8        29.48R FOG
ALBERT LEA     CLOUDY    50  50 100 S12       29.47R FOG
$$
MNZ078>079-086>088-094>096-231400-
   Southeast Minnesota

CITY           SKY/WX    TMP DP  RH WIND       PRES   REMARKS
ROCHESTER      FOG       48  47  96 S14       29.51S VSB 3/4
RED WING         N/A     52  48  87 S7        29.47S
STANTON        CLOUDY    49  47  92 SW10      29.46R FOG
DODGE CENTER   FOG       48  48 100 S17       29.48S VSB 1/4
WINONA         MOCLDY    52  48  87 S7        29.52S
AUSTIN         FOG       48  46  93 S13       29.49S VSB 1
PRESTON        CLOUDY    47  47  97 S15       29.52S FOG
$$
ABBREVIATIONS USED IN REMARKS
   TC - TEMPERATURES IN CELSIUS
  WCI - WIND CHILL INDEX
   HX - HEAT INDEX
  VSB - VISIBILITY
$$



USA.gov is the U.S. government's official web portal to all federal, state and local government web resources and services.